Temp
62 61 61 60 61 60 60 60 59 59 60 61 62 62 62 61 61 59 60 62 62 62 61 59 59 59 58 58 58 57 56 56 56 57 59 61 62 62 61 62 62 61 60
63 62 60 60 60 59 60 60 60 60 60 61 62 63 64 62 61 60 61 62 62 61 61 60 58 60 58 58 58 57 56 57 60 56 58 58 59 60 60 59 60 60 60
62 60 60 59 59 59 60 60 60 60 60 62 63 62 63 63 62 61 62 62 61 61 61 60 59 59 60 59 58 58 58 59 60 58 57 58 58 59 58 58 58 58 59
63 62 60 59 59 59 60 59 60 61 62 65 66 65 63 62 62 63 63 62 61 61 60 60 60 60 60 59 59 59 59 59 59 58 57 56 57 57 58 56 55 57 56
63 61 60 62 60 60 60 60 61 62 65 67 64 61 60 60 58 59 62 60 60 59 60 61 61 61 60 60 59 59 59 58 58 57 56 55 55 55 55 56 55 55 55
63 66 65 65 61 60 60 61 61 62 66 64 61 60 58 59 46 52 58 60 60 60 59 60 59 58 56 55 56 56 59 59 57 57 56 54 55 55 56 55 54 53 51
67 67 65 62 62 62 61 61 60 63 63 61 59 58 56 56 46 49 52 60 59 60 60 59 59 58 58 58 53 53 54 54 58 60 58 57 56 57 57 55 55 55 53
68 67 64 63 62 62 61 60 59 60 61 59 56 56 56 55 46 47 52 59 61 61 60 59 58 58 58 59 60 59 60 60 60 62 62 59 59 59 59 59 57 55 55
68 64 64 64 62 62 60 58 57 57 57 56 57 56 56 55 46 48 55 60 60 60 60 60 60 59 48 49 58 56 56 54 51 50 49 49 47 49 56 60 56 55 53
65 65 65 64 63 61 60 58 58 58 58 58 57 56 53 56 46 47 55 60 60 59 59 58 50 54 46 49 59 58 55 56 56 56 55 52 53 51 52 60 59 55 53
68 70 64 63 62 61 59 58 59 58 59 58 56 55 56 55 53 47 49 60 60 59 58 57 54 45 45 46 52 60 56 58 54 58 57 56 56 56 55 55 55 56 53
68 67 64 62 65 62 59 59 59 58 57 56 55 55 55 57 49 46 46 51 54 60 59 58 52 43 44 44 50 44 46 52 58 57 55 54 53 52 53 54 55 55 55
66 63 61 61 62 60 59 58 57 57 56 55 56 57 56 57 55 45 44 45 48 56 60 53 43 41 43 45 43 44 49 56 55 55 55 52 54 53 53 54 55 55 53
64 61 60 60 59 59 59 58 58 57 56 56 56 56 54 55 55 55 54 52 48 52 49 51 49 48 47 48 50 52 56 57 56 56 53 52 53 52 52 54 54 53 53
64 63 60 59 59 58 56 56 58 58 57 58 56 56 55 55 56 52 53 55 55 52 54 55 57 56 55 56 56 55 55 56 55 54 54 54 53 53 53 53 54 52 52
63 62 61 60 58 57 55 53 45 46 46 49 49 54 57 50 44 43 44 44 43 45 57 57 57 57 56 56 57 56 54 54 55 55 54 55 55 55 54 54 54 53 52
64 62 61 60 59 56 55 55 56 52 43 45 44 47 49 48 42 42 42 42 43 48 56 57 57 57 58 58 58 59 55 56 56 57 56 55 55 55 52 55 55 53 52
64 53 63 63 62 58 57 57 57 56 56 55 43 46 44 42 41 41 40 45 51 51 56 56 56 56 58 59 58 56 55 55 55 56 56 56 56 56 54 55 56 56 56
63 63 65 64 63 60 58 57 57 57 57 55 51 46 41 39 39 39 41 55 56 55 55 56 56 56 56 57 57 56 56 56 57 56 56 57 57 58 57 57 57 48 50
64 57 59 63 60 59 58 57 57 56 56 55 54 55 49 49 51 51 51 55 56 55 55 56 56 56 56 56 57 57 57 55 56 58 58 59 59 59 59 58 58 57 55
64 62 58 64 61 62 61 60 60 57 57 56 56 53 43 58 57 57 54 55 57 58 57 57 56 57 57 57 58 57 58 58 59 59 59 59 59 58 60 60 59 58 59
64 64 62 65 65 64 62 63 60 60 60 59 58 53 38 53 58 58 59 58 59 61 62 61 60 60 60 60 60 59 59 60 59 58 58 59 58 58 59 58 57 57 56
62 63 63 64 64 57 58 60 61 61 61 61 60 56 48 55 59 60 60 61 60 60 61 61 62 62 62 62 63 62 62 63 64 63 61 60 60 59 59 58 58 57 54
60 61 61 60 61 59 60 60 60 54 62 62 61 60 55 57 60 61 62 62 62 62 62 61 62 63 64 62 63 63 64 65 64 63 62 62 61 57 60 59 59 58 56
57 58 60 58 58 58 59 59 59 59 61 63 63 62 60 59 60 62 63 63 62 62 62 62 63 63 62 63 64 64 58 46 59 55 64 62 63 61 61 61 60 57 55
55 55 57 58 59 60 58 58 58 58 58 60 61 62 63 61 61 62 63 63 63 63 63 64 64 64 64 64 64 58 46 44 47 44 61 62 61 61 60 60 57 57 53
MSLP
1001.78 1002.24 1002.70 1003.15 1003.44 1003.85 1004.32 1004.78 1005.10 1005.27 1005.48 1005.84 1006.00 1006.19 1006.28 1006.38 1006.44 1006.62 1006.76 1006.66 1006.71 1006.84 1007.07 1007.38 1007.53 1007.62 1008.07 1008.33 1008.64 1009.08 1009.43 1009.77 1010.69 1011.30 1011.38 1011.53 1011.75 1012.11 1012.77 1013.30 1013.71 1014.35 1015.20
1002.03 1002.56 1002.99 1003.41 1003.75 1004.18 1004.56 1004.82 1004.99 1005.28 1005.61 1005.77 1005.91 1006.06 1006.16 1006.34 1006.38 1006.55 1006.57 1006.39 1006.59 1006.72 1006.85 1007.21 1007.47 1007.53 1007.88 1008.16 1008.51 1008.81 1009.21 1009.70 1010.24 1011.04 1011.58 1011.93 1012.30 1012.74 1013.31 1014.00 1014.53 1015.16 1015.92
1002.18 1002.75 1003.27 1003.60 1003.96 1004.30 1004.61 1004.83 1005.03 1005.27 1005.54 1005.66 1005.78 1005.95 1006.15 1006.20 1006.28 1006.25 1006.21 1006.26 1006.46 1006.60 1006.89 1007.08 1007.39 1007.56 1007.90 1008.28 1008.58 1008.89 1009.39 1009.98 1010.51 1011.08 1011.82 1012.22 1012.81 1013.18 1013.87 1014.66 1014.86 1015.96 1016.79
1002.26 1002.77 1003.25 1003.69 1004.12 1004.37 1004.59 1004.86 1005.10 1005.23 1005.47 1005.50 1005.62 1005.98 1006.19 1006.29 1006.32 1006.25 1005.95 1005.98 1006.34 1006.68 1006.90 1006.99 1007.22 1007.54 1007.89 1008.28 1008.63 1009.04 1009.60 1010.22 1010.94 1011.58 1012.19 1012.85 1013.21 1014.07 1014.47 1015.01 1016.02 1016.77 1017.68
1002.35 1002.78 1003.36 1003.78 1004.11 1004.47 1004.73 1004.97 1005.08 1005.19 1005.32 1005.36 1005.83 1006.17 1006.42 1006.57 1006.74 1006.46 1006.17 1006.27 1006.55 1006.85 1006.94 1007.04 1007.29 1007.59 1007.92 1008.17 1008.53 1009.00 1009.57 1010.28 1011.01 1011.83 1012.64 1013.26 1013.95 1014.61 1014.81 1015.68 1016.40 1017.53 1018.65
1002.33 1002.85 1003.28 1003.66 1004.13 1004.51 1004.78 1004.94 1005.08 1005.16 1005.25 1005.66 1006.14 1006.34 1006.73 1006.80 1007.06 1006.72 1006.58 1006.61 1006.83 1007.05 1007.20 1007.31 1007.46 1007.82 1008.22 1008.53 1008.95 1009.33 1009.58 1009.99 1011.05 1011.84 1012.78 1013.48 1014.28 1014.77 1015.45 1016.17 1016.70 1017.87 1019.12
1002.28 1002.83 1003.27 1003.63 1004.04 1004.40 1004.79 1005.00 1005.10 1005.30 1005.45 1005.96 1006.49 1006.69 1007.05 1007.06 1007.19 1007.02 1006.91 1006.92 1007.19 1007.33 1007.43 1007.58 1007.86 1008.34 1008.62 1009.14 1009.61 1009.95 1010.29 1010.79 1011.24 1011.64 1012.32 1013.40 1014.14 1014.95 1015.44 1016.44 1017.36 1018.02 1019.00
1002.15 1002.67 1003.25 1003.52 1003.95 1004.41 1004.82 1005.10 1005.33 1005.60 1005.83 1006.22 1006.71 1006.96 1007.27 1007.41 1007.37 1007.15 1007.14 1007.30 1007.47 1007.60 1007.92 1008.11 1008.38 1008.74 1009.10 1009.42 1009.92 1010.51 1011.01 1011.64 1012.07 1012.48 1013.09 1013.75 1014.38 1015.22 1015.88 1016.27 1017.55 1018.56 1019.72
1002.13 1002.68 1003.17 1003.57 1003.92 1004.38 1004.86 1005.15 1005.44 1005.70 1006.09 1006.46 1006.76 1007.11 1007.33 1007.50 1007.57 1007.42 1007.45 1007.66 1007.87 1008.08 1008.41 1008.53 1008.91 1009.27 1009.58 1009.85 1010.24 1010.95 1011.79 1012.66 1012.90 1013.26 1013.84 1014.37 1015.28 1015.76 1016.17 1016.85 1018.03 1018.77 1020.04
1002.06 1002.54 1003.10 1003.55 1003.89 1004.38 1004.71 1005.21 1005.52 1005.84 1006.23 1006.63 1006.95 1007.17 1007.38 1007.62 1007.78 1007.72 1007.81 1008.01 1008.29 1008.55 1009.02 1009.27 1009.56 1009.93 1010.19 1010.53 1010.81 1011.37 1012.27 1012.97 1013.48 1014.33 1015.24 1015.83 1016.04 1016.77 1016.93 1017.04 1017.84 1018.80 1019.73
1001.92 1002.47 1003.04 1003.48 1003.89 1004.36 1004.79 1005.18 1005.55 1005.90 1006.33 1006.83 1007.22 1007.45 1007.63 1007.81 1008.01 1007.99 1008.13 1008.33 1008.63 1008.97 1009.46 1010.02 1010.46 1010.53 1010.80 1011.08 1011.46 1011.92 1012.57 1013.29 1013.98 1014.67 1015.66 1016.42 1016.79 1017.21 1017.61 1017.92 1018.23 1018.51 1019.04
1001.91 1002.47 1003.00 1003.43 1003.99 1004.41 1004.82 1005.24 1005.60 1005.96 1006.44 1007.08 1007.50 1007.76 1007.89 1008.01 1008.25 1008.36 1008.37 1008.60 1008.96 1009.27 1009.80 1010.39 1011.03 1011.18 1011.55 1011.85 1012.22 1012.53 1013.07 1013.73 1014.48 1015.27 1016.09 1016.76 1017.28 1017.68 1017.91 1017.96 1018.18 1018.51 1018.77
1001.95 1002.59 1003.11 1003.62 1004.14 1004.59 1004.97 1005.39 1005.84 1006.21 1006.68 1007.22 1007.62 1007.92 1008.09 1008.21 1008.53 1008.77 1008.69 1009.00 1009.36 1009.86 1010.16 1010.71 1011.43 1011.85 1012.13 1012.51 1012.86 1013.12 1013.46 1014.13 1014.96 1015.65 1016.30 1016.91 1017.17 1017.49 1017.75 1018.10 1018.41 1018.73 1019.07
1002.05 1002.75 1003.36 1003.82 1004.34 1004.86 1005.20 1005.46 1005.83 1006.22 1006.70 1007.15 1007.59 1007.90 1008.17 1008.39 1008.67 1009.02 1009.40 1009.68 1009.87 1010.40 1010.72 1011.32 1011.81 1012.22 1012.54 1013.06 1013.64 1013.70 1014.02 1014.41 1014.86 1015.56 1016.35 1016.87 1017.23 1017.65 1018.01 1018.18 1018.65 1019.04 1019.41
1002.08 1002.78 1003.47 1003.96 1004.44 1005.13 1005.55 1005.93 1006.02 1006.05 1006.31 1006.88 1007.31 1007.67 1008.12 1008.50 1008.67 1008.88 1009.28 1009.75 1010.12 1010.56 1011.05 1011.64 1011.97 1012.47 1013.07 1013.44 1013.82 1014.14 1014.40 1014.70 1015.09 1015.58 1016.21 1016.71 1017.22 1017.73 1018.05 1018.16 1018.42 1018.94 1019.32
1002.25 1002.91 1003.46 1004.06 1004.58 1005.08 1005.65 1006.18 1006.29 1006.28 1006.33 1006.68 1007.03 1007.41 1007.94 1008.17 1008.47 1008.96 1009.39 1009.78 1010.25 1010.68 1011.23 1011.69 1012.11 1012.55 1013.02 1013.44 1013.87 1014.23 1014.46 1014.72 1015.13 1015.56 1016.07 1016.51 1017.04 1017.43 1017.79 1017.98 1018.19 1018.58 1018.95
1001.84 1002.63 1003.33 1003.90 1004.48 1005.02 1005.63 1005.98 1006.28 1006.55 1006.54 1006.75 1007.13 1007.42 1007.79 1008.17 1008.71 1009.12 1009.56 1009.97 1010.53 1010.85 1011.35 1011.81 1012.14 1012.54 1012.88 1013.28 1013.69 1013.98 1014.29 1014.53 1014.87 1015.35 1015.90 1016.30 1016.66 1017.13 1017.46 1017.64 1017.90 1018.18 1018.32
1001.54 1002.09 1002.83 1003.48 1004.10 1004.67 1005.13 1005.45 1005.81 1006.29 1006.63 1007.16 1007.52 1007.71 1007.96 1008.27 1008.81 1009.40 1009.87 1010.41 1011.14 1011.13 1011.23 1011.63 1011.99 1012.29 1012.58 1012.94 1013.32 1013.62 1014.03 1014.43 1014.81 1015.15 1015.58 1015.83 1016.24 1016.57 1016.88 1016.98 1017.10 1017.32 1017.58
1001.73 1002.23 1002.64 1003.17 1003.64 1004.08 1004.62 1005.14 1005.48 1005.92 1006.32 1006.86 1007.61 1008.17 1008.53 1008.89 1009.37 1009.89 1009.99 1010.04 1010.56 1010.82 1010.98 1011.33 1011.54 1011.82 1012.12 1012.41 1012.78 1013.20 1013.57 1013.95 1014.19 1014.59 1014.93 1015.12 1015.33 1015.70 1015.87 1015.97 1016.14 1016.36 1016.82
1001.30 1001.66 1002.30 1002.87 1003.43 1003.97 1004.46 1004.97 1005.43 1005.80 1006.26 1006.65 1007.15 1007.65 1008.47 1009.01 1009.63 1009.89 1010.08 1009.96 1010.11 1010.30 1010.55 1010.82 1011.06 1011.35 1011.68 1011.96 1012.25 1012.52 1012.88 1013.31 1013.62 1013.79 1013.97 1014.16 1014.33 1014.62 1014.90 1015.13 1015.40 1015.68 1015.94
1001.06 1001.53 1001.72 1002.38 1003.09 1003.45 1003.90 1004.45 1004.85 1005.34 1005.87 1006.36 1006.61 1007.12 1007.15 1007.86 1008.31 1008.67 1009.01 1009.27 1009.34 1009.51 1009.77 1010.05 1010.37 1010.70 1010.98 1011.28 1011.64 1012.01 1012.27 1012.47 1012.73 1013.01 1013.26 1013.50 1013.77 1014.04 1013.98 1014.11 1014.44 1014.67 1014.87
1000.64 1001.08 1001.66 1001.93 1002.31 1002.92 1003.36 1003.73 1004.28 1004.73 1005.21 1005.72 1006.14 1006.91 1007.29 1007.73 1007.63 1007.72 1007.92 1008.11 1008.24 1008.43 1008.68 1009.02 1009.41 1009.70 1009.94 1010.21 1010.53 1010.93 1011.19 1011.46 1011.75 1012.07 1012.38 1012.62 1012.80 1012.91 1013.01 1013.21 1013.40 1013.67 1013.99
1001.05 1000.94 1001.28 1001.64 1001.85 1002.23 1002.84 1003.30 1003.74 1004.15 1004.44 1004.78 1005.27 1006.02 1006.79 1006.94 1006.81 1006.80 1006.82 1006.88 1007.24 1007.53 1007.81 1008.13 1008.41 1008.68 1008.83 1008.98 1009.15 1009.53 1009.81 1009.86 1010.06 1010.54 1010.99 1011.31 1011.55 1011.76 1011.93 1012.09 1012.29 1012.67 1013.12
1001.92 1001.55 1001.49 1001.60 1001.72 1002.18 1002.53 1002.81 1003.08 1003.36 1003.69 1004.02 1004.40 1004.83 1005.32 1005.54 1005.61 1005.54 1005.57 1005.87 1006.25 1006.46 1006.79 1007.08 1007.31 1007.47 1007.70 1007.89 1007.98 1008.14 1008.24 1008.40 1008.73 1009.02 1009.51 1009.90 1010.14 1010.39 1010.61 1010.83 1011.02 1011.24 1011.57
1002.93 1002.70 1002.19 1002.09 1002.01 1002.11 1002.33 1002.59 1002.82 1003.01 1003.28 1003.43 1003.63 1003.89 1004.06 1004.26 1004.45 1004.50 1004.60 1004.89 1005.14 1005.44 1005.65 1005.83 1005.98 1006.08 1006.23 1006.43 1006.59 1006.64 1006.77 1007.12 1007.35 1007.62 1008.08 1008.53 1008.74 1008.96 1009.13 1009.32 1009.60 1009.89 1010.24
1004.22 1003.94 1003.60 1003.30 1003.04 1002.78 1002.83 1002.95 1003.00 1003.12 1003.19 1003.16 1003.17 1003.17 1003.19 1003.25 1003.25 1003.40 1003.57 1003.83 1004.02 1004.12 1004.23 1004.43 1004.45 1004.51 1004.57 1004.61 1004.72 1004.85 1005.18 1005.51 1005.92 1006.27 1006.58 1007.10 1007.35 1007.47 1007.69 1007.92 1008.18 1008.55 1008.92
Wind_Speed
9 8 8 6 7 6 6 5 6 5 5 5 4 3 3 2 3 3 4 3 5 2 3 4 5 4 3 4 4 3 3 3 6 2 2 3 4 10 10 10 11 13 13
9 8 7 7 6 6 6 6 6 6 4 5 4 3 2 2 3 3 3 4 4 4 5 4 4 3 4 3 3 5 4 2 7 9 3 3 5 10 11 12 10 10 13
7 7 6 6 6 6 6 6 5 5 5 3 3 2 3 2 2 4 3 4 5 4 4 5 4 4 4 5 5 6 6 6 8 7 5 4 5 9 12 10 13 13 11
7 7 7 6 6 6 6 6 5 4 4 2 3 4 3 2 3 4 2 4 5 3 2 2 5 5 8 7 7 9 8 9 9 9 9 8 7 8 12 13 11 10 10
6 6 6 6 6 6 5 4 4 4 3 5 6 5 3 3 4 4 3 4 5 4 2 2 5 7 10 8 7 9 12 9 9 9 9 9 9 9 11 10 12 10 8
6 6 7 7 6 6 5 4 4 3 4 6 5 5 3 3 6 6 4 4 5 4 4 6 6 9 9 11 10 9 9 14 13 8 10 11 10 10 10 10 12 10 5
8 7 7 7 6 6 6 4 3 3 5 6 4 5 2 3 7 4 6 4 5 5 5 5 5 5 8 9 11 12 13 13 9 13 16 12 13 12 13 12 11 7 5
8 8 6 6 6 6 6 5 3 4 5 6 4 4 3 3 6 4 8 5 5 5 6 6 6 7 8 10 12 11 10 9 8 8 11 12 13 12 10 13 10 8 9
9 8 7 6 7 6 7 6 3 5 5 4 3 4 3 3 6 6 7 5 5 7 7 6 7 8 10 12 13 13 13 10 14 17 15 16 13 13 12 11 9 11 6
8 9 7 6 6 6 6 6 3 3 4 4 4 3 4 4 5 6 7 4 5 6 6 7 11 8 13 13 13 13 13 11 14 14 11 11 10 9 7 7 9 10 6
8 9 7 6 7 6 6 3 5 5 6 5 5 3 4 3 3 8 10 4 5 5 6 5 4 10 12 12 12 12 11 11 12 12 9 7 7 4 4 5 5 9 7
9 8 7 7 4 5 7 4 6 6 6 5 5 3 2 3 5 5 9 9 7 6 6 6 4 9 12 12 8 16 17 12 9 8 8 6 6 4 3 5 6 4 2
8 7 6 6 5 5 6 5 4 5 5 4 5 4 2 2 3 5 9 10 10 6 5 9 10 10 12 12 15 15 12 8 8 8 7 4 5 4 5 4 3 2 4
9 7 6 6 6 5 3 4 4 4 4 4 4 5 3 3 3 4 4 5 10 8 10 7 8 8 9 9 6 4 5 6 8 8 5 4 4 4 3 3 3 3 2
9 8 6 5 6 5 3 2 2 2 5 5 4 4 5 4 4 7 8 5 5 7 9 5 5 5 5 5 5 3 4 5 5 4 6 6 4 4 3 3 2 3 3
8 7 6 6 4 4 4 3 7 4 2 6 10 6 2 4 10 10 10 12 15 12 5 5 4 4 5 6 5 4 3 5 4 4 4 5 5 5 4 3 3 4 4
10 8 6 6 5 5 4 5 4 2 7 5 8 11 9 9 10 12 12 14 15 9 4 4 5 5 6 6 6 8 6 5 4 5 4 5 4 4 4 4 4 3 4
9 12 9 7 6 5 5 5 4 4 3 3 6 4 6 10 11 10 13 11 4 2 5 7 7 7 7 9 8 6 4 4 4 4 4 5 5 4 4 5 6 8 7
6 7 8 7 7 7 5 4 4 4 3 4 3 4 7 9 11 8 8 4 6 5 4 5 5 6 6 7 7 6 6 6 7 6 6 6 7 7 7 7 7 10 8
7 13 9 7 5 5 4 5 4 4 3 4 4 4 5 5 4 4 5 3 5 4 4 5 5 5 5 5 5 6 7 6 7 8 8 8 8 7 8 8 8 8 7
6 7 11 8 7 7 7 7 6 5 5 5 5 5 10 9 9 9 8 8 6 7 6 6 5 6 6 6 7 7 7 7 7 8 7 7 7 8 8 9 8 9 9
5 6 7 9 8 8 8 7 7 7 6 6 5 4 8 3 5 7 9 9 9 8 7 8 7 7 8 8 8 8 9 9 8 7 8 8 8 9 9 9 8 8 8
2 5 7 5 6 8 6 7 7 7 7 8 6 6 6 8 7 8 9 9 9 9 7 7 8 8 8 8 9 10 10 11 10 9 9 9 9 9 9 9 10 9 8
7 5 2 3 4 4 5 6 7 9 8 8 7 7 8 9 11 11 11 9 8 9 9 9 9 12 10 9 9 9 10 10 8 9 11 9 9 9 9 9 10 12 10
8 8 7 6 2 4 5 5 5 5 7 7 7 8 8 9 10 11 10 10 10 10 11 11 11 14 17 17 16 16 15 15 15 12 10 12 13 13 11 11 10 10 10
9 10 10 8 8 8 5 3 1 1 4 5 5 7 8 9 10 10 10 10 11 12 13 11 15 21 21 18 22 22 15 15 15 16 13 11 12 12 11 13 12 9 9
Wind_Direction
118 115 119 124 123 125 134 145 161 155 146 162 187 201 217 247 252 225 215 216 227 215 171 200 195 184 184 177 161 161 152 125 128 101 94 66 102 113 112 113 113 115 114
133 133 130 128 133 134 146 155 160 157 160 176 200 221 222 219 234 242 230 174 182 203 180 168 191 161 152 145 140 144 137 133 133 130 78 81 96 113 117 116 119 117 117
129 126 129 141 150 153 156 156 168 146 167 208 211 237 193 223 264 260 220 212 159 177 184 180 175 144 119 117 125 118 116 108 114 117 114 100 101 112 101 93 107 106 105
140 147 151 160 163 159 159 160 163 165 155 214 160 127 122 60 358 339 192 173 159 149 148 168 162 144 135 130 132 130 126 117 122 122 111 111 108 112 115 118 100 99 109
142 147 160 160 150 146 154 160 177 171 121 114 113 116 90 62 25 346 74 114 125 118 73 134 121 133 140 142 141 140 132 129 121 123 124 117 121 129 123 120 109 105 91
144 148 158 145 146 152 154 181 154 130 118 114 127 121 91 64 2 352 109 106 92 82 77 93 113 119 119 115 116 109 137 139 134 133 128 133 128 121 124 123 117 119 107
147 150 147 153 151 157 163 167 155 126 122 117 129 116 88 59 15 35 109 101 104 100 90 90 89 101 110 117 102 97 88 85 107 140 138 141 128 136 130 124 128 115 108
158 152 155 154 153 159 158 171 136 113 121 128 154 129 122 60 20 103 95 97 93 93 93 92 96 100 119 128 128 105 101 91 101 122 128 126 128 133 130 135 123 103 99
155 152 156 165 154 157 164 160 139 121 124 144 155 141 134 76 34 116 95 88 95 92 97 90 106 113 114 112 110 103 95 84 72 87 95 106 107 110 124 121 120 126 134
157 157 159 172 158 166 162 157 142 132 140 130 136 136 124 101 57 125 105 101 100 95 91 83 87 112 112 111 115 110 112 116 111 105 98 91 103 95 86 136 145 138 131
147 158 156 164 165 163 147 146 135 125 126 128 118 94 97 70 86 132 122 116 119 110 110 107 109 118 112 109 121 120 120 118 112 116 117 111 117 104 107 104 119 152 155
153 156 165 164 162 151 147 132 115 120 123 128 116 96 70 72 64 134 131 129 122 119 123 120 120 116 109 90 89 122 117 111 117 119 125 130 134 124 129 146 157 162 121
143 152 157 139 148 148 137 131 114 117 127 136 132 142 148 91 80 124 134 124 103 98 127 122 113 103 95 101 126 126 115 114 121 131 143 149 162 156 143 120 105 105 57
153 144 147 146 141 138 126 137 134 144 139 140 147 160 155 124 115 120 118 107 100 92 102 105 107 90 81 105 111 87 108 133 147 149 148 130 128 143 151 147 138 145 146
153 151 151 137 142 138 99 130 154 154 154 162 172 158 154 161 189 159 150 140 132 123 115 123 132 122 116 126 135 110 115 131 136 141 148 157 153 140 194 170 162 152 176
147 152 158 153 155 148 145 124 54 33 157 171 152 153 157 133 144 148 142 128 126 135 117 144 142 133 144 149 158 151 153 156 144 134 145 157 171 183 187 187 174 182 191
160 156 150 151 157 155 159 163 180 28 52 176 170 165 165 157 155 149 144 136 144 127 138 155 154 156 159 160 177 186 182 181 155 162 153 171 166 174 169 198 190 192 232
162 158 162 168 167 162 179 179 167 174 178 140 73 122 177 156 153 141 130 114 140 95 157 169 176 177 181 186 188 186 162 146 165 163 168 187 182 182 183 212 205 213 221
158 167 172 174 179 175 167 171 177 181 178 139 114 90 85 83 93 102 173 141 177 188 170 176 182 185 183 182 182 177 171 179 190 189 193 197 199 196 216 219 223 218 202
172 174 169 170 163 158 159 170 177 182 184 179 180 163 133 120 156 166 200 193 180 191 184 189 187 180 184 187 187 188 190 188 195 203 208 211 216 210 219 220 222 224 213
175 179 180 170 171 181 179 183 187 177 187 198 210 176 177 170 181 185 188 202 202 201 194 194 187 189 191 191 193 196 205 213 212 212 216 219 218 222 224 224 221 221 228
174 180 184 190 184 182 190 189 182 185 191 198 213 175 166 229 182 191 198 205 210 212 204 198 200 200 201 200 196 196 204 210 207 202 209 214 211 218 219 217 214 216 222
257 174 181 201 190 184 172 182 185 193 196 202 198 169 177 200 207 203 206 210 208 209 206 201 209 211 207 205 205 204 208 216 216 206 209 212 215 217 217 222 219 221 211
13 36 174 198 177 178 190 195 198 195 197 202 197 194 190 201 208 212 211 210 210 213 209 209 216 221 219 212 211 214 219 222 211 210 207 218 222 214 218 220 218 217 219
14 11 26 26 278 203 193 201 202 201 207 211 206 206 206 205 209 217 216 213 212 213 215 215 218 221 220 219 219 216 215 209 214 210 213 220 228 222 220 224 224 225 220
27 24 22 20 21 32 45 36 320 268 243 233 225 222 217 211 215 217 219 216 216 218 219 219 224 224 227 227 228 226 216 210 210 210 210 214 219 224 222 226 223 219 214